Location: *
(35.8942°N, 23.3025°E)
Time: 17:53:55
(UTC+00:00)

Gurwin Techsat 1B - Pass Details

Date: 05 April 2023
Orbit: 811 x 813 km, 98.9° (Epoch: 03 June)

Event Time Altitude Azimuth Distance (km) Brightness Sun altitude
Rises 02:11:02 0° 1° (N) 3,344 12.2 -23.4°
Reaches altitude 10° 02:13:37 10° 351° (N) 2,408 11.3 -23.0°
Enters shadow 02:17:43 30° 301° (WNW) 1,440 9.6 -22.2°
